Location: Melbourne
(37.8170°S, 144.9670°E)
Time: 07:36:36
(UTC+10:00)

ADEOS Rocket - Visible Passes

Search period start: 30 August 2016 00:00
Search period end: 09 September 2016 00:00
Orbit: 859 x 1306 km, 98.7° (Epoch: 28 August)

Date Brightness Start Highest point End Pass type
(mag) Time Alt. Az. Time Alt. Az. Time Alt. Az.
30 Aug 5.3 03:52:40 12° SSW 03:52:40 12° SSW 03:53:00 10° SSW visible
30 Aug 5.9 18:28:40 10° SW 18:29:31 10° WSW 18:30:21 10° WSW visible
31 Aug 5.4 03:02:54 13° S 03:02:54 13° S 03:03:35 10° S visible
31 Aug5.404:49:50SSW04:49:50SSW04:34:19Nvisible
01 Sep 5.2 04:00:04 13° SSW 04:00:04 13° SSW 04:00:36 10° SSW visible
02 Sep 5.3 03:10:18 15° S 03:10:18 15° S 03:11:19 10° S visible
03 Sep 5.7 02:20:31 12° SSE 02:20:31 12° SSE 02:21:03 10° SSE visible
03 Sep 5.1 04:07:28 14° SSW 04:07:28 14° SSW 04:08:11 10° SSW visible
04 Sep 5.1 03:17:41 17° S 03:17:41 17° S 03:19:02 10° S visible
05 Sep 5.5 02:27:54 14° SSE 02:27:54 14° SSE 02:28:57 10° SSE visible
05 Sep 4.9 04:14:50 15° SSW 04:14:50 15° SSW 04:15:43 10° SSW visible
06 Sep 4.9 03:25:03 20° S 03:25:03 20° S 03:26:42 10° S visible
07 Sep 5.3 02:35:17 16° SSE 02:35:17 16° SSE 02:36:49 10° SSE visible
07 Sep 4.8 04:22:13 15° SSW 04:22:13 15° SSW 04:23:14 10° SSW visible
08 Sep 4.7 03:32:25 22° S 03:32:25 22° S 03:34:21 10° S visible
